Weather in Krapivnaya

Russia / Kamchatka Krai     55°56′14″N   159°23′53″E
temp.,
°C
wind,
m/s
gust,
m/s
humid.,
%
clouds,
%
prec.,
mm/h
press.,
hPa
HPBL,
m
28 february, sun
sun2800:00−13nne489077 0.1 1015220
03:00−13nne51090100 0.1 1014323
06:00−14nne5990100 0.1 1013300
09:00−13nne4989100 0.0 1012365
12:00−10ne51481100 0.1 1009841
15:00−9nne61579100 0.1 1005865
18:00−10nne61681100 0.1 1001566
21:00−11n62083100 0.1 1000644
1 march, mon
mon100:00−11nne72185100 0.2 9971061
03:00−12n61681100 0.1 996772
06:00−13n4883100 0.1 996292
09:00−14n2383100 0.0 99776
12:00−10sse1180100 0.0 996406
15:00−9s2288100 0.1 996421
18:00−10s2395100 0.7 996296
21:00−12wnw1291100 0.5 99936
2 march, tue
tue200:00−13nw2283100 0.6 100135
03:00−14nw3381100 0.0 100450
06:00−15nw3478100 0.0 1007107
09:00−15nw3477100 0.0 1012108
12:00−12wnw2468100 0.0 1014407
15:00−11w2564100 0.0 1016672
18:00−12ssw1279100 0.0 101832
21:00−15nw238248 0.0 102321
3 march, wed
wed300:00−16nne119172 0.1 102620
03:00−17e0093100 0.1 102720
06:00−16nne1192100 0.1 102520
09:00−14ne1286100 0.0 1022101
12:00−13ene2393100 0.8 1015299
15:00−11ne4788100 0.8 1006494
18:00−11nne5986100 1.2 997394
21:00−11nne5990100 1.3 988287
4 march, thu
thu400:00−7nne4789100 2.6 976196
03:00−6s71196100 1.4 971690
06:00−13nw3107683 2.1 981342
09:00−13w12226284 0.0 9881681
12:00−13w12186075 0.0 9931762
15:00−12wsw9195851 0.0 9972477
18:00−13ssw377661 0.0 1000589
21:00−18wsw118819 0.0 100031